TimeCST,TemperatureF,Dew PointF,Humidity,Sea Level PressureIn,VisibilityMPH,Wind Direction,Wind SpeedMPH,Gust SpeedMPH,PrecipitationIn,Events,Conditions,WindDirDegrees,DateUTC
12:09 AM,19.4,15.8,86,29.90,8.0,NNE,11.5,-,N/A,,Scattered Clouds,30,2012-12-28 06:09:00
12:26 AM,17.6,14.0,86,29.90,8.0,NE,11.5,-,N/A,,Scattered Clouds,40,2012-12-28 06:26:00
12:38 AM,17.6,14.0,86,29.90,8.0,NE,9.2,-,N/A,,Mostly Cloudy,50,2012-12-28 06:38:00
12:53 AM,17.1,14.0,88,29.95,8.0,NE,8.1,24.2,N/A,,Mostly Cloudy,50,2012-12-28 06:53:00
1:23 AM,15.8,12.2,86,29.90,9.0,NE,8.1,-,N/A,,Partly Cloudy,40,2012-12-28 07:23:00
1:53 AM,15.1,12.9,91,29.97,9.0,NE,4.6,-,N/A,,Scattered Clouds,50,2012-12-28 07:53:00
2:53 AM,17.1,12.9,84,29.98,9.0,NNW,3.5,-,N/A,,Mostly Cloudy,340,2012-12-28 08:53:00
3:38 AM,17.6,15.8,93,29.94,8.0,NW,3.5,-,N/A,,Overcast,310,2012-12-28 09:38:00
3:53 AM,19.0,15.1,85,29.98,7.0,NNW,4.6,-,N/A,,Overcast,330,2012-12-28 09:53:00
4:04 AM,19.4,15.8,86,29.94,7.0,North,6.9,-,N/A,,Overcast,350,2012-12-28 10:04:00
4:35 AM,21.2,15.8,80,29.93,8.0,North,15.0,-,N/A,,Overcast,10,2012-12-28 10:35:00
4:53 AM,21.0,16.0,81,29.97,9.0,North,12.7,-,N/A,,Overcast,10,2012-12-28 10:53:00
5:53 AM,18.0,14.0,84,30.01,9.0,North,10.4,-,N/A,,Clear,350,2012-12-28 11:53:00
6:53 AM,16.0,12.0,84,30.04,8.0,NNW,6.9,-,N/A,,Clear,330,2012-12-28 12:53:00
7:53 AM,14.0,10.9,88,30.08,9.0,NNW,5.8,-,N/A,,Mostly Cloudy,330,2012-12-28 13:53:00
8:53 AM,19.0,14.0,81,30.09,9.0,NW,6.9,-,N/A,,Clear,320,2012-12-28 14:53:00
9:53 AM,25.0,16.0,69,30.11,10.0,NNW,12.7,-,N/A,,Clear,330,2012-12-28 15:53:00
10:53 AM,28.9,14.0,54,30.12,10.0,North,12.7,-,N/A,,Clear,350,2012-12-28 16:53:00
11:53 AM,33.1,12.9,43,30.11,10.0,NNE,12.7,-,N/A,,Clear,20,2012-12-28 17:53:00
12:53 PM,36.0,12.9,39,30.07,10.0,North,10.4,-,N/A,,Clear,360,2012-12-28 18:53:00
1:53 PM,36.0,14.0,41,30.05,10.0,NNW,5.8,-,N/A,,Clear,340,2012-12-28 19:53:00
2:53 PM,36.0,15.1,43,30.05,10.0,NW,8.1,-,N/A,,Clear,320,2012-12-28 20:53:00
3:53 PM,37.0,15.1,41,30.05,10.0,WNW,9.2,-,N/A,,Clear,300,2012-12-28 21:53:00
4:53 PM,37.0,14.0,39,30.07,10.0,NNW,5.8,-,N/A,,Clear,330,2012-12-28 22:53:00
7:53 PM,24.1,17.1,75,30.21,10.0,WSW,6.9,-,N/A,,Clear,240,2012-12-29 01:53:00
8:53 PM,23.0,17.1,78,30.22,10.0,WSW,9.2,-,N/A,,Clear,240,2012-12-29 02:53:00
9:53 PM,24.8,15.8,69,30.14,10.0,West,8.1,-,N/A,,Clear,260,2012-12-29 03:53:00
10:53 PM,21.0,15.1,78,30.23,10.0,WNW,5.8,-,N/A,,Clear,290,2012-12-29 04:53:00
11:53 PM,19.9,14.0,78,30.25,10.0,NW,8.1,-,N/A,,Partly Cloudy,320,2012-12-29 05:53:00